Tracking 20241 objects as of 26-Jan-2020
HD Live streaming from Space Station
objects crossing your sky now

COSMOS 2251 DEB

Track COSMOS 2251 DEB now!
10-day predictions


NORAD ID: 35982
Int'l Code: 1993-036AVY
Perigee: 670.3 km
Apogee: 783.2 km
Inclination: 74.1 °
Period: 99.2 minutes
Semi major axis: 7097 km
RCS: 0.0109 m2 (small)
Launch date: June 16, 1993
Source: Commonwealth of Independent States (former USSR) (CIS)
Launch site: PLESETSK MISSILE AND SPACE COMPLEX (PKMTR)

Note: This is SATELLITE DEBRIS
aabbcc
Your satellite tracking list
Your tracking list is empty




NASA's NSSDC Master Catalog

Two Line Element Set (TLE):
1 35982U 93036AVY 20025.57006586  .00000217  00000-0  59017-4 0  9990
2 35982  74.0601  88.1224 0079513 348.3079  11.6233 14.51852292550477
Source of the keplerian elements: AFSPC